Estació meteorològica de Bellmunt (Osona, Osona)

Consulta les dades en temps real de l'estació meteorològica de Bellmunt





Hora UTC 07:55
Temperatura 18.5 ºC
Humitat 64.0 %
Pressió 1015.3 hPa
Pluja 0.0 mm
Velocitat vent 1.6 km/h
Direcció vent W

Dades diàries 2026-08-31



Hora UTC (hivern +1h; estiu +2h)
Temperatura (ºC) Humitat (%) Pressió (hPa) Velocitat vent (km/h) Precipitació (mm)
Hora UTC Aire Humitat Pressió Vel. Dir. Vel. Max Dir. Intent. màx 5 min.
00:05 20.8 56.0 1014.7 4.8 S 4.8 0.0
00:10 20.8 56.0 1014.7 0.0 S 8.0 0.0
00:15 20.7 56.0 1014.7 1.6 SE 8.0 0.0
00:20 20.7 56.0 1014.7 0.0 SE 9.7 0.0
00:25 20.7 56.0 1014.7 0.0 SE 9.7 0.0
00:30 20.8 55.0 1014.7 0.0 SE 6.4 0.0
00:35 20.8 54.0 1014.7 11.3 S 11.3 0.0
00:40 20.9 54.0 1014.6 0.0 SSE 9.7 0.0
00:45 20.9 55.0 1014.6 1.6 SE 3.2 0.0
00:50 20.8 55.0 1014.6 6.4 SE 8.0 0.0
00:55 20.7 56.0 1014.6 6.4 ESE 9.7 0.0
01:00 20.7 56.0 1014.6 9.7 ESE 9.7 0.0
01:05 20.7 56.0 1014.5 6.4 ESE 11.3 0.0
01:10 20.8 56.0 1014.5 12.9 ESE 14.5 0.0
01:15 20.8 56.0 1014.5 9.7 ESE 14.5 0.0
01:20 20.7 57.0 1014.5 11.3 ESE 14.5 0.0
01:25 20.8 57.0 1014.5 6.4 SE 12.9 0.0
01:30 20.7 58.0 1014.4 0.0 SE 11.3 0.0
01:35 20.8 58.0 1014.3 1.6 SE 4.8 0.0
01:40 20.8 58.0 1014.4 0.0 SE 6.4 0.0
01:45 20.8 58.0 1014.4 0.0 SE 4.8 0.0
01:50 20.7 58.0 1014.4 0.0 SE 0.0 0.0
01:55 20.6 58.0 1014.4 0.0 SE 0.0 0.0
02:00 20.6 58.0 1014.5 0.0 WSW 0.0 0.0
02:05 20.4 58.0 1014.5 0.0 S 1.6 0.0
02:10 20.3 59.0 1014.5 0.0 S 1.6 0.0
02:15 20.1 60.0 1014.4 1.6 NW 3.2 0.0
02:20 19.9 60.0 1014.4 1.6 NNW 3.2 0.0
02:25 19.8 60.0 1014.5 1.6 W 3.2 0.0
02:30 19.6 61.0 1014.4 3.2 NNW 4.8 0.0
02:35 19.4 61.0 1014.3 1.6 NNW 6.4 0.0
02:40 19.4 61.0 1014.4 1.6 E 3.2 0.0
02:45 19.3 61.0 1014.4 3.2 WSW 14.5 0.0
02:50 19.2 62.0 1014.4 3.2 SE 16.1 0.0
02:55 19.1 63.0 1014.4 3.2 SE 16.1 0.0
03:00 19.2 63.0 1014.4 0.0 ESE 12.9 0.0
03:05 19.2 62.0 1014.4 3.2 SE 6.4 0.0
03:10 19.1 62.0 1014.4 3.2 ESE 17.7 0.0
03:15 19.0 62.0 1014.4 12.9 SE 17.7 0.0
03:20 18.9 63.0 1014.4 12.9 SE 17.7 0.0
03:25 19.0 63.0 1014.4 14.5 ESE 20.9 0.0
03:30 19.1 64.0 1014.4 12.9 SE 20.9 0.0
03:35 19.2 63.0 1014.3 6.4 SE 19.3 0.0
03:40 19.2 64.0 1014.3 1.6 ESE 16.1 0.0
03:45 19.1 64.0 1014.2 3.2 SE 6.4 0.0
03:50 18.9 64.0 1014.4 0.0 SE 12.9 0.0
03:55 18.9 65.0 1014.4 0.0 S 12.9 0.0
04:00 18.8 65.0 1014.4 3.2 SSE 3.2 0.0
04:05 18.9 65.0 1014.4 6.4 SE 16.1 0.0
04:10 19.1 64.0 1014.4 0.0 ESE 16.1 0.0
04:15 19.1 64.0 1014.4 1.6 SE 12.9 0.0
04:20 19.1 64.0 1014.4 0.0 SE 12.9 0.0
04:25 19.1 64.0 1014.3 0.0 SE 12.9 0.0
04:30 19.2 63.0 1014.3 3.2 SE 6.4 0.0
04:35 19.1 63.0 1014.3 3.2 SE 6.4 0.0
04:40 19.1 63.0 1014.3 4.8 SE 12.9 0.0
04:45 19.1 63.0 1014.3 0.0 SE 12.9 0.0
04:50 19.1 64.0 1014.3 3.2 SE 8.0 0.0
04:55 18.9 64.0 1014.3 0.0 SE 6.4 0.0
05:00 18.9 64.0 1014.3 3.2 SE 9.7 0.0
05:05 18.9 64.0 1014.3 0.0 SE 6.4 0.0
05:10 18.8 64.0 1014.3 0.0 ESE 4.8 0.0
05:15 18.8 64.0 1014.4 0.0 SE 4.8 0.0
05:20 18.8 64.0 1014.4 0.0 SE 4.8 0.0
05:25 18.7 65.0 1014.6 0.0 SE 4.8 0.0
05:30 18.7 65.0 1014.6 0.0 SE 1.6 0.0
05:35 18.6 65.0 1014.7 0.0 SE 1.6 0.0
05:40 18.6 65.0 1014.7 0.0 SE 1.6 0.0
05:45 18.6 65.0 1014.8 0.0 SE 0.0 0.0
05:50 18.6 65.0 1014.8 1.6 SE 1.6 0.0
05:55 18.5 66.0 1014.8 0.0 SE 1.6 0.0
06:00 18.5 66.0 1014.8 0.0 SSE 0.0 0.0
06:05 18.5 66.0 1014.8 0.0 SSE 0.0 0.0
06:10 18.4 67.0 1014.8 0.0 SSW 1.6 0.0
06:15 18.4 67.0 1014.9 0.0 S 3.2 0.0
06:20 18.4 67.0 1014.9 8.0 S 9.7 0.0
06:25 18.4 68.0 1014.9 0.0 S 9.7 0.0
06:30 18.5 68.0 1014.9 8.0 SE 8.0 0.0
06:35 18.5 67.0 1014.9 0.0 SSE 12.9 0.0
06:40 18.4 65.0 1014.9 0.0 SSE 11.3 0.0
06:45 18.4 66.0 1014.9 4.8 SE 9.7 0.0
06:50 18.3 67.0 1014.9 4.8 ESE 11.3 0.0
06:55 18.4 65.0 1015.0 0.0 SE 12.9 0.0
07:00 18.4 65.0 1015.0 0.0 E 12.9 0.0
07:05 18.3 66.0 1015.1 0.0 SE 11.3 0.0
07:10 18.2 66.0 1015.1 0.0 ESE 11.3 0.0
07:15 18.3 67.0 1015.1 3.2 SE 9.7 0.0
07:20 18.3 65.0 1015.1 1.6 SW 9.7 0.0
07:25 18.3 65.0 1015.0 1.6 SE 4.8 0.0
07:30 18.4 64.0 1015.2 1.6 SE 11.3 0.0
07:35 18.5 65.0 1015.2 1.6 SE 11.3 0.0
07:40 18.6 64.0 1015.2 6.4 SE 11.3 0.0
07:45 18.6 64.0 1015.1 1.6 ESE 11.3 0.0
07:50 18.6 64.0 1015.2 1.6 ESE 11.3 0.0
07:55 18.5 64.0 1015.3 1.6 W 6.4 0.0
Màxima 20.9 68.0 1015.3 14.5 ESE 20.9 0.0
Mínima 18.2 54.0 1014.2
Total 0.0